ONEWEB-0125 (47271 NORAD) Tracking and Keplerian Element Data

This shows tracking and keplerian element data for the satellite.

Feedback or suggestion? Click here.




ElementValue
Catalog47271
NameONEWEB-0125
Epoch Orbit507
Epoch Day20.75130574
Epoch Year2021
RAAN28.0343
Inclination87.4002
Eccentricity0.0008886
Argument of Perigee133.6858
Mean Anonmoly226.5114
Mean Motion15.0039613
Decay Rate-0.00424747
L11 47271U 20100P 21020.75130574 -.00424747 00000-0 -35904-1 0 9993
L22 47271 87.4002 28.0343 0008886 133.6858 226.5114 15.00396130 5079

Live tracking and technical data element details for ONEWEB-0125 (NORAD 47271). ONEWEB-0125 can be tracked NOW for your location showing map with azimuth and elevation plus other details from your city location.

Track the satellite on the map from your city or location and see movement details for azimuth, elevation, latitude, longitude, range, height, and movement on the map or in text.







IsCatalogInMostPopularTable: catalog: 47271, numindb: 14
Update: records affected: 1



GetName: 47271 ONEWEB-0125

Hit Count: updated at: Sat, 23 Jan 2021 16:33:00 GMT